Location: Zagreb
(45.8000°N, 16.0000°E)
Time: 00:18:54
(UTC+01:00)

NO-84 - Pass Details

Date: 06 November 2020
Orbit: 323 x 458 km, 55.0° (Epoch: 25 November)

Event Time Altitude Azimuth Distance (km) Brightness Sun altitude
Exits shadow 04:06:08 13° 45° (NE) 1,260 ? -27.7°
Drops below altitude 10° 04:06:48 10° 55° (NE) 1,431 ? -27.6°
Sets 04:09:15 0° 76° (ENE) 2,252 ? -27.1°
